Погода в Мценске

Россия / Орловская область     53°16′44″N   36°34′30″E
темп.,
°C
ветер,
м/с
пор.,
м/с
влажн.,
%
обл.,
%
осадки,
мм/ч
давл.,
гПа
погр.,
м
16 мая, вс
вс1600:00+12ююз34940 0.0 101271
03:00+11ююз34950 0.0 101368
06:00+12ю239294 0.0 101376
09:00+16ю248213 0.0 1013236
12:00+19ююз46732 1.4 1014448
15:00+22юз47548 1.6 10132041
18:00+21юз2469100 0.0 1013267
21:00+16всв117999 0.0 101311
17 мая, пн
пн1700:00+14всв33855 0.0 101337
03:00+13всв488448 0.0 1013135
06:00+14в51288100 0.2 1012283
09:00+19в6117797 0.2 1010443
12:00+24вюв711604 0.0 1009809
15:00+25вюв71260100 0.0 10081546
18:00+22вюв7156681 0.0 1007631
21:00+19вюв616745 0.0 1007454
18 мая, вт
вт1800:00+17юв514795 0.0 1007338
03:00+15юв51190100 0.0 1007224
06:00+15юв4109199 0.0 1007240
09:00+20юв697989 0.0 1007571
12:00+23ююв696766 0.0 10071367
15:00+24ююв586077 0.0 10061752
18:00+22вюв377397 0.4 1005220
21:00+17юв4118499 0.5 1005237
19 мая, ср
ср1900:00+15зсз119498 0.6 100517
03:00+14юв359481 0.6 1005127
06:00+15ююв3995100 0.1 1005309
09:00+18ююв688397 0.1 1006871
12:00+20ююв686684 0.4 10061481
15:00+20ююв5763100 1.4 10061386
18:00+17ююв4783100 1.8 1005356
21:00+13вюв389588 5.1 1005310
20 мая, чт
чт2000:00+11вюв38964 0.0 1006182
03:00+10юв489833 0.0 1006236
06:00+11ю489699 0.0 1006520
09:00+13ююз5887100 0.1 1007654
12:00+13ююз6990100 0.4 1009890
15:00+13юз688598 0.6 1011762
18:00+14юз597851 0.1 10121100
21:00+11ююз41095100 0.1 1014247